Location: Nebula Knoll Observatory
(43.6666°N, 71.0000°W)
Time: 05:22:47
(UTC-05:00)

Cosmos 1782 - Visible Passes

Search period start: 26 January 2015 00:00
Search period end: 05 February 2015 00:00
Orbit: 544 x 563 km, 82.5° (Epoch: 24 January)

Date Brightness Start Highest point End Pass type
(mag) Time Alt. Az. Time Alt. Az. Time Alt. Az.
28 Jan 5.4 19:20:58 10° NNW 19:21:29 13° NNW 19:21:29 13° NNW visible
29 Jan 4.7 17:43:07 10° NE 17:44:11 12° NE 17:44:11 12° NE visible
29 Jan 4.4 19:17:54 10° NNW 19:20:08 30° NNW 19:20:08 30° NNW visible
30 Jan 4.5 17:39:42 10° NE 17:41:51 14° ENE 17:44:10 10° ESE visible
30 Jan 3.8 19:14:51 10° NNW 19:18:43 46° W 19:20:46 24° SSW visible
31 Jan 4.4 17:36:21 10° NNE 17:38:49 16° ENE 17:41:25 10° ESE visible
31 Jan 4.1 19:11:48 10° NNW 19:15:36 40° W 19:19:23 10° SSW visible
01 Feb 4.2 17:33:03 10° NNE 17:35:47 18° ENE 17:38:37 10° ESE visible
01 Feb 4.4 19:08:46 10° NNW 19:12:29 36° W 19:16:10 10° SSW visible
02 Feb 4.1 17:29:46 10° NNE 17:32:43 20° ENE 17:35:47 10° ESE visible
02 Feb 4.7 19:05:44 10° NNW 19:09:22 32° W 19:12:57 10° SSW visible
03 Feb 4.0 17:26:31 10° NNE 17:29:40 22° ENE 17:32:54 10° SE visible
03 Feb 4.9 19:02:44 10° NNW 19:06:14 28° W 19:09:41 10° SSW visible
04 Feb 3.9 17:23:16 10° NNE 17:26:36 25° ENE 17:30:00 10° SE visible
04 Feb 5.2 18:59:44 10° NNW 19:03:07 25° W 19:06:25 10° SW visible
